2023/12/25 00:00:00,12.2,-0.6
2023/12/25 00:10:00,12.1,-0.6
2023/12/25 00:20:00,12.1,-0.3
2023/12/25 00:30:00,12.1,-0.3
2023/12/25 00:40:00,12.1,-0.7
2023/12/25 00:50:00,12.1,-0.5
2023/12/25 01:00:00,12.1,-0.2
2023/12/25 01:10:00,12.0,-0.3
2023/12/25 01:20:00,12.0,-0.3
2023/12/25 01:30:00,12.0,-0.5
2023/12/25 01:40:00,11.9,-0.5
2023/12/25 01:50:00,11.9,-0.6
2023/12/25 02:00:00,11.9,-0.7
2023/12/25 02:10:00,11.8,-0.5
2023/12/25 02:20:00,11.8,-0.8
2023/12/25 02:30:00,11.8,-0.4
2023/12/25 02:40:00,11.8,-0.7
2023/12/25 02:50:00,11.8,-1.0
2023/12/25 03:00:00,11.8,-1.1
2023/12/25 03:10:00,11.7,-1.3
2023/12/25 03:20:00,11.6,-1.9
2023/12/25 03:30:00,11.7,-1.4
2023/12/25 03:40:00,11.6,-1.2
2023/12/25 03:50:00,11.6,-1.1
2023/12/25 04:00:00,11.5,-0.9
2023/12/25 04:10:00,11.5,-0.9
2023/12/25 04:20:00,11.5,-1.0
2023/12/25 04:30:00,11.5,-0.9
2023/12/25 04:40:00,11.4,-0.9
2023/12/25 04:50:00,11.4,-1.1
2023/12/25 05:00:00,11.4,-1.2
2023/12/25 05:10:00,11.7,-1.2
2023/12/25 05:20:00,11.7,-1.6
2023/12/25 05:30:00,11.7,-2.0
2023/12/25 05:40:00,11.6,-2.0
2023/12/25 05:50:00,11.6,-2.3
2023/12/25 06:00:00,11.6,-2.3
2023/12/25 06:10:00,11.5,-2.1
2023/12/25 06:20:00,11.5,-2.3
2023/12/25 06:30:00,11.5,-2.4
2023/12/25 06:40:00,11.4,-2.7
2023/12/25 06:50:00,11.4,-2.2
2023/12/25 07:00:00,11.4,-2.1
2023/12/25 07:10:00,11.3,-2.0
2023/12/25 07:20:00,11.3,-1.9
2023/12/25 07:30:00,11.3,-1.6
2023/12/25 07:40:00,11.3,-2.0
2023/12/25 07:50:00,11.3,-1.9
2023/12/25 08:00:00,11.3,-2.3
2023/12/25 08:10:00,11.2,-2.3
2023/12/25 08:20:00,11.2,-2.3
2023/12/25 08:30:00,11.1,-2.4
2023/12/25 08:40:00,11.2,-2.5
2023/12/25 08:50:00,11.2,-2.6
2023/12/25 09:00:00,11.2,-2.2
2023/12/25 09:10:00,11.2, 0.5
2023/12/25 09:20:00,11.3, 3.2
2023/12/25 09:30:00,11.3, 4.7
2023/12/25 09:40:00,11.2, 4.4
2023/12/25 09:50:00,11.1, 3.2
2023/12/25 10:00:00,11.1, 5.3
2023/12/25 10:10:00,11.1, 3.1
2023/12/25 10:20:00,11.1, 6.5
2023/12/25 10:30:00,11.1, 8.9
2023/12/25 10:40:00,11.0, 9.7
2023/12/25 10:50:00,11.1,10.1
2023/12/25 11:00:00,11.0, 7.5
2023/12/25 11:10:00,11.1, 9.7
2023/12/25 11:20:00,11.0,10.9
2023/12/25 11:30:00,10.9, 6.4
2023/12/25 11:40:00,10.7, 5.6
2023/12/25 11:50:00,10.5, 6.0
2023/12/25 12:00:00,10.6, 5.3
2023/12/25 12:10:00,10.6, 5.3
2023/12/25 12:20:00,10.5, 4.4
2023/12/25 12:30:00,10.6, 3.8
2023/12/25 12:40:00,10.7, 3.4
2023/12/25 12:50:00,10.8, 3.0
2023/12/25 13:00:00,10.6, 2.6
2023/12/25 13:10:00,10.7, 2.9
2023/12/25 13:20:00,10.6, 3.0
2023/12/25 13:30:00,10.5, 3.7
2023/12/25 13:40:00,10.4, 6.1
2023/12/25 13:50:00,10.4, 5.3
2023/12/25 14:00:00,10.3, 3.6
2023/12/25 14:10:00,10.3, 3.3
2023/12/25 14:20:00,10.2, 4.1
2023/12/25 14:30:00,10.3, 9.0
2023/12/25 14:40:00,10.3, 9.4
2023/12/25 14:50:00, 9.9, 6.4
2023/12/25 15:00:00, 9.9, 4.0
2023/12/25 15:10:00,10.0, 2.4
2023/12/25 15:20:00, 9.9, 2.2
2023/12/25 15:30:00, 9.8, 2.1
2023/12/25 15:40:00, 9.8, 1.4
2023/12/25 15:50:00, 9.8, 1.9
2023/12/25 16:00:00, 9.7, 1.5
2023/12/25 16:10:00, 9.7, 1.5
2023/12/25 16:20:00, 9.6, 0.9
2023/12/25 16:30:00, 9.5, 0.6
2023/12/25 16:40:00, 9.4, 0.2
2023/12/25 16:50:00, 9.3, 0.0
2023/12/25 17:00:00, 9.3,-0.2
2023/12/25 17:10:00, 9.2,-0.4
2023/12/25 17:20:00, 9.2,-0.4
2023/12/25 17:30:00, 9.2,-0.8
2023/12/25 17:40:00, 9.2,-0.8
2023/12/25 17:50:00, 9.1,-0.6
2023/12/25 18:00:00, 9.0,-0.5
2023/12/25 18:10:00, 9.0,-0.6
2023/12/25 18:20:00, 9.0,-1.3
2023/12/25 18:30:00, 9.0,-1.2
2023/12/25 18:40:00, 9.1,-0.8
2023/12/25 18:50:00, 9.1,-0.9
2023/12/25 19:00:00, 9.1,-0.9
2023/12/25 19:10:00, 9.2,-0.9
2023/12/25 19:20:00, 9.1,-1.0
2023/12/25 19:30:00, 9.0,-1.3
2023/12/25 19:40:00, 9.0,-1.2
2023/12/25 19:50:00, 9.1,-1.2
2023/12/25 20:00:00, 9.1,-0.7
2023/12/25 20:10:00, 9.1,-1.3
2023/12/25 20:20:00, 9.1,-1.4
2023/12/25 20:30:00, 9.0,-1.5
2023/12/25 20:40:00, 9.2,-1.2
2023/12/25 20:50:00, 9.2,-1.3
2023/12/25 21:00:00, 9.2,-1.5
2023/12/25 21:10:00, 9.1,-1.7
2023/12/25 21:20:00, 9.1,-1.6
2023/12/25 21:30:00, 9.1,-1.4
2023/12/25 21:40:00, 9.0,-1.4
2023/12/25 21:50:00, 9.0,-1.2
2023/12/25 22:00:00, 9.0,-1.2
2023/12/25 22:10:00, 9.0,-1.3
2023/12/25 22:20:00, 8.9,-1.2
2023/12/25 22:30:00, 8.9,-1.1
2023/12/25 22:40:00, 8.9,-1.0
2023/12/25 22:50:00, 8.9,-0.9
2023/12/25 23:00:00, 8.9,-0.8
2023/12/25 23:10:00, 8.8,-1.5
2023/12/25 23:20:00, 8.8,-1.6
2023/12/25 23:30:00, 8.8,-1.9
2023/12/25 23:40:00, 8.8,-1.9
2023/12/25 23:50:00, 8.8,-2.3
